• In Latvia
  • List of Countries
  • For 7 days
  • Water Temperature
  • Satellite Maps
  • Weather Map
  • Weather Widgets
  • user-avatar
    Login

    Hourly Weather Makiivka

    Today, 27 April, Friday

    Time Temperature Precipitation Wind Pressure Humidity
    00:00 +17°C° 0 mm 2 mps 743 mmHg 68%
    01:00 +16°C° 0 mm 2 mps 743 mmHg 69%
    02:00 +16°C° 0 mm 2 mps 743 mmHg 71%
    03:00 +16°C° 0 mm 1 mps 743 mmHg 72%
    04:00 +15°C° 0 mm 1 mps 742 mmHg 73%
    05:00 +15°C° 0 mm 1 mps 742 mmHg 74%
    06:00 +15°C° 0 mm 2 mps 742 mmHg 75%
    07:00 +17°C° 0 mm 2 mps 742 mmHg 69%
    08:00 +19°C° 0 mm 3 mps 742 mmHg 63%
    09:00 +20°C° 0 mm 4 mps 742 mmHg 57%
    10:00 +22°C° 0 mm 4 mps 742 mmHg 52%
    11:00 +23°C° 0 mm 5 mps 742 mmHg 46%
    12:00 +26°C° 0 mm 5 mps 742 mmHg 40%
    13:00 +26°C° 0 mm 5 mps 742 mmHg 39%
    14:00 +27°C° 0 mm 6 mps 741 mmHg 38%
    15:00 +27°C° 0 mm 6 mps 741 mmHg 36%
    16:00 +26°C° 0 mm 5 mps 741 mmHg 39%
    17:00 +26°C° 0 mm 5 mps 741 mmHg 42%
    18:00 +25°C° 0 mm 4 mps 741 mmHg 45%
    19:00 +21°C° 0.1 mm 4 mps 741 mmHg 55%
    20:00 +19°C° 0.1 mm 5 mps 742 mmHg 65%
    21:00 +15°C° 0.1 mm 5 mps 742 mmHg 75%
    22:00 +14°C° 0.3 mm 5 mps 742 mmHg 78%
    23:00 +13°C° 0.3 mm 5 mps 743 mmHg 81%

    Tomorrow, 28 April, Saturday

    Time Temperature Precipitation Wind Pressure Humidity
    00:00 +10°C° 0.3 mm 6 mps 743 mmHg 84%
    01:00 +10°C° 0 mm 6 mps 744 mmHg 84%
    02:00 +9°C° 0 mm 6 mps 744 mmHg 84%
    03:00 +8°C° 0 mm 6 mps 745 mmHg 84%
    04:00 +8°C° 0 mm 5 mps 745 mmHg 84%
    05:00 +7°C° 0 mm 5 mps 745 mmHg 83%
    06:00 +7°C° 0 mm 4 mps 746 mmHg 82%
    07:00 +10°C° 0 mm 4 mps 746 mmHg 76%
    08:00 +12°C° 0 mm 4 mps 747 mmHg 69%
    09:00 +13°C° 0 mm 4 mps 747 mmHg 62%
    10:00 +15°C° 0 mm 4 mps 748 mmHg 56%
    11:00 +17°C° 0 mm 4 mps 748 mmHg 50%
    12:00 +19°C° 0 mm 4 mps 749 mmHg 44%
    13:00 +19°C° 0 mm 4 mps 749 mmHg 41%
    14:00 +20°C° 0 mm 4 mps 749 mmHg 39%
    15:00 +20°C° 0 mm 4 mps 749 mmHg 36%
    16:00 +20°C° 0 mm 4 mps 749 mmHg 37%
    17:00 +20°C° 0 mm 3 mps 749 mmHg 39%
    18:00 +19°C° 0 mm 3 mps 749 mmHg 40%
    19:00 +18°C° 0 mm 2 mps 749 mmHg 44%
    20:00 +16°C° 0 mm 2 mps 749 mmHg 48%
    21:00 +15°C° 0 mm 2 mps 750 mmHg 52%
    22:00 +14°C° 0 mm 1 mps 750 mmHg 54%
    23:00 +14°C° 0 mm 1 mps 750 mmHg 55%

    Day after tomorrow, 29 April, Sunday

    Time Temperature Precipitation Wind Pressure Humidity
    00:00 +13°C° 0 mm 1 mps 751 mmHg 57%
    01:00 +13°C° 0 mm 1 mps 751 mmHg 59%
    02:00 +12°C° 0 mm 1 mps 751 mmHg 60%
    03:00 +12°C° 0 mm 1 mps 751 mmHg 61%
    04:00 +12°C° 0 mm 1 mps 751 mmHg 62%
    05:00 +12°C° 0 mm 1 mps 751 mmHg 63%
    06:00 +12°C° 0 mm 1 mps 751 mmHg 65%
    07:00 +14°C° 0 mm 1 mps 751 mmHg 59%
    08:00 +16°C° 0 mm 1 mps 752 mmHg 53%
    09:00 +17°C° 0 mm 2 mps 752 mmHg 47%
    10:00 +20°C° 0 mm 1 mps 752 mmHg 43%
    11:00 +21°C° 0 mm 1 mps 752 mmHg 39%
    12:00 +22°C° 0 mm 1 mps 752 mmHg 36%
    13:00 +22°C° 0 mm 1 mps 752 mmHg 34%
    14:00 +23°C° 0 mm 1 mps 751 mmHg 33%
    15:00 +23°C° 0 mm 1 mps 751 mmHg 32%
    16:00 +23°C° 0 mm 1 mps 751 mmHg 33%
    17:00 +23°C° 0 mm 2 mps 751 mmHg 35%
    18:00 +23°C° 0 mm 2 mps 750 mmHg 36%
    19:00 +20°C° 0 mm 2 mps 750 mmHg 40%
    20:00 +18°C° 0 mm 2 mps 750 mmHg 45%
    21:00 +17°C° 0 mm 2 mps 751 mmHg 49%
    22:00 +16°C° 0 mm 2 mps 750 mmHg 51%
    23:00 +15°C° 0 mm 2 mps 750 mmHg 53%

    30 April, Monday

    Time Temperature Precipitation Wind Pressure Humidity
    00:00 +15°C° 0 mm 2 mps 750 mmHg 55%
    01:00 +14°C° 0 mm 2 mps 750 mmHg 57%
    02:00 +14°C° 0 mm 2 mps 750 mmHg 58%
    03:00 +13°C° 0 mm 2 mps 750 mmHg 60%
    04:00 +13°C° 0 mm 2 mps 750 mmHg 61%
    05:00 +13°C° 0 mm 2 mps 750 mmHg 63%
    06:00 +13°C° 0 mm 2 mps 750 mmHg 65%
    07:00 +15°C° 0 mm 2 mps 750 mmHg 59%
    08:00 +17°C° 0 mm 3 mps 750 mmHg 53%
    09:00 +19°C° 0 mm 3 mps 750 mmHg 46%
    10:00 +20°C° 0 mm 4 mps 750 mmHg 43%
    11:00 +21°C° 0 mm 4 mps 750 mmHg 39%
    12:00 +22°C° 0 mm 4 mps 750 mmHg 36%
    13:00 +23°C° 0 mm 4 mps 750 mmHg 35%
    14:00 +23°C° 0 mm 4 mps 749 mmHg 34%
    15:00 +25°C° 0 mm 4 mps 749 mmHg 33%
    16:00 +24°C° 0 mm 3 mps 749 mmHg 36%
    17:00 +24°C° 0 mm 3 mps 748 mmHg 38%
    18:00 +24°C° 0 mm 3 mps 748 mmHg 41%
    19:00 +21°C° 0 mm 3 mps 748 mmHg 45%
    20:00 +19°C° 0 mm 3 mps 748 mmHg 49%
    21:00 +18°C° 0 mm 3 mps 748 mmHg 53%
    22:00 +17°C° 0 mm 2 mps 748 mmHg 55%
    23:00 +16°C° 0 mm 2 mps 748 mmHg 57%

    1 May, Tuesday

    Time Temperature Precipitation Wind Pressure Humidity
    00:00 +16°C° 0 mm 2 mps 748 mmHg 59%
    01:00 +15°C° 0 mm 2 mps 748 mmHg 60%
    02:00 +15°C° 0 mm 2 mps 748 mmHg 61%
    03:00 +14°C° 0 mm 2 mps 748 mmHg 62%
    04:00 +14°C° 0 mm 2 mps 748 mmHg 63%
    05:00 +13°C° 0 mm 3 mps 748 mmHg 64%
    06:00 +12°C° 0 mm 3 mps 748 mmHg 65%
    07:00 +16°C° 0 mm 3 mps 748 mmHg 57%
    08:00 +18°C° 0 mm 4 mps 748 mmHg 49%
    09:00 +20°C° 0 mm 5 mps 749 mmHg 41%
    10:00 +21°C° 0 mm 5 mps 749 mmHg 37%
    11:00 +22°C° 0 mm 5 mps 749 mmHg 34%
    12:00 +25°C° 0 mm 5 mps 749 mmHg 31%
    13:00 +25°C° 0 mm 5 mps 748 mmHg 30%
    14:00 +26°C° 0 mm 5 mps 748 mmHg 29%
    15:00 +26°C° 0 mm 5 mps 748 mmHg 29%
    16:00 +26°C° 0 mm 5 mps 748 mmHg 32%
    17:00 +25°C° 0 mm 4 mps 748 mmHg 36%
    18:00 +23°C° 0 mm 4 mps 748 mmHg 39%
    19:00 +22°C° 0 mm 3 mps 748 mmHg 43%
    20:00 +20°C° 0 mm 3 mps 748 mmHg 48%
    21:00 +18°C° 0 mm 3 mps 748 mmHg 52%
    22:00 +17°C° 0 mm 3 mps 748 mmHg 54%
    23:00 +16°C° 0 mm 3 mps 748 mmHg 55%

    2 May, Wednesday

    Time Temperature Precipitation Wind Pressure Humidity
    00:00 +16°C° 0 mm 3 mps 748 mmHg 57%
    01:00 +14°C° 0 mm 3 mps 748 mmHg 57%
    02:00 +14°C° 0 mm 3 mps 748 mmHg 58%
    03:00 +13°C° 0 mm 3 mps 747 mmHg 58%
    04:00 +13°C° 0 mm 3 mps 748 mmHg 58%
    05:00 +13°C° 0 mm 3 mps 748 mmHg 59%
    06:00 +12°C° 0 mm 3 mps 748 mmHg 59%
    07:00 +14°C° 0 mm 4 mps 748 mmHg 53%
    08:00 +16°C° 0 mm 5 mps 748 mmHg 48%
    09:00 +19°C° 0 mm 6 mps 748 mmHg 42%
    10:00 +20°C° 0 mm 6 mps 748 mmHg 39%
    11:00 +22°C° 0 mm 6 mps 748 mmHg 36%
    12:00 +23°C° 0 mm 7 mps 748 mmHg 34%
    13:00 +24°C° 0 mm 6 mps 747 mmHg 34%
    14:00 +24°C° 0 mm 6 mps 747 mmHg 34%
    15:00 +26°C° 0 mm 6 mps 747 mmHg 34%
    16:00 +25°C° 0 mm 5 mps 747 mmHg 38%
    17:00 +25°C° 0 mm 5 mps 746 mmHg 41%
    18:00 +23°C° 0 mm 4 mps 746 mmHg 45%
    19:00 +22°C° 0 mm 4 mps 746 mmHg 50%
    20:00 +20°C° 0 mm 3 mps 746 mmHg 54%
    21:00 +18°C° 0 mm 3 mps 746 mmHg 59%
    22:00 +18°C° 0 mm 3 mps 745 mmHg 61%
    23:00 +17°C° 0 mm 3 mps 745 mmHg 63%
    Show more